Hourly Data Report for October 05, 2015

All times are specified in Local Standard Time (LST). Add 1 hour to adjust for Daylight Saving Time where and when it is observed.

KUGAARUK CLIMATE
NUNAVUT

68°32'15.060" N
89°47'47.020" W
15.80 m
2303094
71407
NBB

Download Data

Hourly Data (October 2015)
Hourly Data Report for October 5, 2015
Temp Definition
°C
Dew Point Temp Definition
°C
Rel Hum Definition
%
Wind Dir Definition
10's deg

Wind Spd Definition
km/h
Visibility Definition
km
Stn Press Definition
kPa
Hmdx Definition


Wind Chill Definition


Weather Definition


TIME
00:00 -0.3 -2.4 86 20 21   101.52   -6 LegendNANA
01:00 -0.4 -2.5 86 21 23   101.48   -6 LegendNANA
02:00 -0.4 -2.3 87 21 25   101.42   -6 LegendNANA
03:00 -0.4 -2.1 88 21 25   101.41   -6 LegendNANA
04:00 -0.5 -2.2 88 22 23   101.39   -6 LegendNANA
05:00 -0.8 -2.7 87 22 21   101.37   -6 LegendNANA
06:00 -1.0 -2.9 87 23 27   101.30   -7 LegendNANA
07:00 -1.2 -3.1 86 23 32   101.22   -8 LegendNANA
08:00 -1.2 -3.2 87 22 36   101.18   -9 LegendNANA
09:00 -0.7 -3.0 84 23 36   101.14   -8 LegendNANA
10:00 -0.4 -3.0 83 24 33   101.10   -7 LegendNANA
11:00 -0.2 -2.7 83 24 31   101.06   -7 LegendNANA
12:00 -0.3 -3.3 80 24 36   101.01   -7 LegendNANA
13:00 -0.2 -3.1 81 24 37   100.97   -7 LegendNANA
14:00 -0.9 -3.7 81 23 30   100.96   -8 LegendNANA
15:00 -1.7 -3.3 89 22 25   100.95   -8 LegendNANA
16:00 -1.9 -3.1 92 21 26   100.87   -8 LegendNANA
17:00 -2.0 -3.5 89 20 25   100.81   -8 LegendNANA
18:00 -1.9 -3.1 91 20 30   100.73   -9 LegendNANA
19:00 -1.6 -2.9 91 21 26   100.68   -8 LegendNANA
20:00 -1.3 -2.4 92 21 30   100.61   -8 LegendNANA
21:00 -1.1 -2.2 92 21 31   100.55   -8 LegendNANA
22:00 -1.0 -2.0 93 21 33   100.51   -8 LegendNANA
23:00 -1.0 -1.9 94 21 34   100.45   -8 LegendNANA

Notes on Data Quality.

Legend

  • E = Estimated
  • M = Missing
  • NA = Not Available
  • ‡ = Partner data that is not subject to review by the National Climate Archives
Date modified: